Weather History for KCWA - May, 2013

Change the Weather History Date:

Friday, May 24, 2013

  Actual Average Record
Temperature  
Mean Temperature 50 °F -  
Max Temperature 66 °F 64 °F 84 °F (2012)
Min Temperature 33 °F 42 °F 33 °F (2013)
Degree Days  
Heating Degree Days 16    
Moisture  
Dew Point 33 °F    
Average Humidity 68    
Maximum Humidity 100    
Minimum Humidity 32    
Precipitation  
Precipitation 0.00 in - - ()
Sea Level Pressure  
Sea Level Pressure 30.37 in    
Wind  
Wind Speed 5 mph (NE)    
Max Wind Speed 8 mph    
Max Gust Speed -    
Visibility 9 miles    
Events      
Averages and records for this station are not official NWS values.
T = Trace of Precipitation, MM = Missing Value Source: NWS Daily Summary

Daily Weather History Graph

Daily Weather History Graph

Search for Another Location

Airport or City:

Trip Planner

Search our weather history database for the weather conditions in past years. The results will help you decide how hot, cold, wet, or windy it might be!

Date:

Astronomy

May. 24, 2013 Rise Set
Actual Time 5:21 AM CDT 8:30 PM CDT
Civil Twilight 4:46 AM CDT 9:05 PM CDT
Nautical Twilight 4:00 AM CDT 9:51 PM CDT
Astronomical Twilight 3:05 AM CDT 10:46 PM CDT
Moon 8:11 PM CDT (5/24) 4:55 AM CDT (5/24)
Length of Visible Light 16h 19m
Length of Day
15h 09m
Full, 100% of the Moon is Illuminated
May 24
Full
May 24
Full
May 31
Last Quarter
Jun 8
New
Jun 16
First Quarter

Hourly Weather History & Observations

Time (CDT) Temp. Windchill Dew Point Humidity Pressure Visibility Wind Dir Wind Speed Gust Speed Precip Events Conditions
12:15 AM 41.0 °F 35.8 °F 32.0 °F 70% 30.34 in 10.0 mi NNE 8.1 mph - N/A   Clear
12:35 AM 39.2 °F 34.2 °F 32.0 °F 75% 30.35 in 10.0 mi NNE 6.9 mph - N/A   Clear
12:55 AM 37.4 °F 32.8 °F 32.0 °F 81% 30.35 in 10.0 mi NNE 5.8 mph - N/A   Clear
1:15 AM 37.4 °F 32.8 °F 32.0 °F 81% 30.35 in 10.0 mi NE 5.8 mph - N/A   Clear
1:35 AM 35.6 °F 31.7 °F 32.0 °F 87% 30.36 in 7.0 mi NNE 4.6 mph - N/A   Clear
1:55 AM 37.4 °F 33.8 °F 32.0 °F 81% 30.36 in 10.0 mi NNE 4.6 mph - N/A   Clear
2:15 AM 35.6 °F - 32.0 °F 87% 30.37 in 7.0 mi Calm Calm - N/A   Clear
2:35 AM 37.4 °F 33.8 °F 32.0 °F 81% 30.37 in 10.0 mi North 4.6 mph - N/A   Clear
2:55 AM 35.6 °F 31.7 °F 32.0 °F 87% 30.37 in 7.0 mi North 4.6 mph - N/A   Clear
3:15 AM 35.6 °F 31.7 °F 32.0 °F 87% 30.38 in 10.0 mi North 4.6 mph - N/A   Clear
3:35 AM 33.8 °F - 32.0 °F 93% 30.38 in 10.0 mi Calm Calm - N/A   Clear
3:55 AM 35.6 °F 31.7 °F 32.0 °F 87% 30.38 in 7.0 mi NNE 4.6 mph - N/A   Clear
4:15 AM 35.6 °F 31.7 °F 32.0 °F 87% 30.38 in 7.0 mi North 4.6 mph - N/A   Clear
4:35 AM 35.6 °F 32.8 °F 32.0 °F 87% 30.38 in 10.0 mi North 3.5 mph - N/A   Clear
4:55 AM 33.8 °F - 32.0 °F 93% 30.39 in 7.0 mi Calm Calm - N/A   Clear
5:15 AM 35.6 °F 31.7 °F 32.0 °F 87% 30.39 in 10.0 mi North 4.6 mph - N/A   Clear
5:35 AM 33.8 °F 29.6 °F 32.0 °F 93% 30.40 in 7.0 mi NNE 4.6 mph - N/A   Clear
5:45 AM 33.8 °F 29.6 °F 33.8 °F 100% 30.40 in 10.0 mi NNE 4.6 mph - N/A   Clear
6:52 AM 37.4 °F 33.8 °F 33.8 °F 87% 30.41 in 10.0 mi ENE 4.6 mph - N/A   Clear
7:50 AM 42.8 °F 41.1 °F 32.0 °F 66% 30.44 in 10.0 mi Variable 3.5 mph - N/A   Clear
8:45 AM 44.6 °F 41.4 °F 30.2 °F 57% 30.43 in 10.0 mi Variable 5.8 mph - N/A   Clear
9:45 AM 48.2 °F - 33.8 °F 58% 30.45 in 10.0 mi Variable 5.8 mph - N/A   Clear
10:45 AM 51.8 °F - 30.2 °F 44% 30.44 in 10.0 mi Calm Calm - N/A   Clear
11:50 AM 53.6 °F - 32.0 °F 44% 30.43 in 10.0 mi ENE 4.6 mph - N/A   Clear
12:45 PM 55.4 °F - 32.0 °F 41% 30.41 in 10.0 mi Calm Calm - N/A   Clear
1:45 PM 55.4 °F - 33.8 °F 44% 30.38 in 10.0 mi Variable 4.6 mph - N/A   Clear
2:45 PM 60.8 °F - 33.8 °F 36% 30.36 in 10.0 mi South 5.8 mph - N/A   Clear
3:45 PM 66.2 °F - 35.6 °F 32% 30.33 in 10.0 mi SSW 6.9 mph - N/A   Clear
4:45 PM 60.8 °F - 35.6 °F 39% 30.31 in 10.0 mi South 8.1 mph - N/A   Clear
5:45 PM 60.8 °F - 35.6 °F 39% 30.30 in 10.0 mi SSW 5.8 mph - N/A   Clear
6:50 PM 60.8 °F - 33.8 °F 36% 30.31 in - Variable 3.5 mph - N/A   Scattered Clouds
7:50 PM 57.2 °F - 33.8 °F 41% 30.32 in 10.0 mi Variable 3.5 mph - N/A   Clear
8:45 PM 53.6 °F - 37.4 °F 54% 30.32 in 10.0 mi Variable 4.6 mph - N/A   Clear
9:45 PM 50.0 °F - 37.4 °F 62% 30.32 in 10.0 mi SE 5.8 mph - N/A   Clear
10:35 PM 48.2 °F - 37.4 °F 66% 30.34 in 10.0 mi SE 5.8 mph - N/A   Clear
10:55 PM 46.4 °F 43.5 °F 37.4 °F 71% 30.34 in 10.0 mi SE 5.8 mph - N/A   Clear
11:15 PM 46.4 °F 44.3 °F 37.4 °F 71% 30.34 in 10.0 mi ESE 4.6 mph - N/A   Clear
11:35 PM 46.4 °F 43.5 °F 35.6 °F 66% 30.33 in 10.0 mi ESE 5.8 mph - N/A   Clear
11:55 PM 46.4 °F 43.5 °F 35.6 °F 66% 30.33 in 10.0 mi ESE 5.8 mph - N/A   Clear